Time,TemperatureF,DewpointF,PressureIn,WindDirection,WindDirectionDegrees,WindSpeedMPH,WindSpeedGustMPH,Humidity,HourlyPrecipIn,Conditions,Clouds,dailyrainin,SoftwareType,DateUTC
2013-02-14 10:52:00,19.0,12.0,-100.00,North,10,15.0,-999.0,72,0.00,,,0.00,,2013-02-14 16:52:00,
2013-02-14 11:01:00,19.0,12.0,-100.00,NE,45,6.0,21.0,70,0.00,,,0.00,,2013-02-14 17:01:00,
2013-02-14 11:11:00,19.0,12.0,-100.00,NE,45,6.0,21.0,70,0.00,,,0.00,,2013-02-14 17:11:00,
2013-02-14 11:21:00,19.0,12.0,-100.00,NE,45,6.0,21.0,70,0.00,,,0.00,,2013-02-14 17:21:00,
2013-02-14 11:31:00,19.0,12.0,-100.00,NE,45,6.0,21.0,70,0.00,,,0.00,,2013-02-14 17:31:00,
2013-02-14 11:41:00,19.0,12.0,-100.00,NE,45,6.0,21.0,70,0.00,,,0.00,,2013-02-14 17:41:00,
2013-02-14 12:01:00,20.0,7.0,-100.00,North,10,16.0,21.0,55,0.00,,,0.00,,2013-02-14 18:01:00,
2013-02-14 12:11:00,20.0,7.0,-100.00,North,5,14.0,20.0,55,0.00,,,0.00,,2013-02-14 18:11:00,
2013-02-14 12:23:00,20.0,5.0,-100.00,North,10,17.0,21.0,52,0.00,,,0.00,,2013-02-14 18:23:00,
2013-02-14 12:32:00,20.0,5.0,-100.00,North,10,16.0,22.0,51,0.00,,,0.00,,2013-02-14 18:32:00,
2013-02-14 12:41:00,20.0,5.0,-100.00,North,10,17.0,23.0,50,0.00,,,0.00,,2013-02-14 18:41:00,
2013-02-14 12:51:00,20.0,5.0,-100.00,North,10,17.0,22.0,49,0.00,,,0.00,,2013-02-14 18:51:00,
2013-02-14 13:02:00,21.0,5.0,-100.00,North,10,12.0,22.0,49,0.00,,,0.00,,2013-02-14 19:02:00,
2013-02-14 13:11:00,21.0,5.0,-100.00,NNE,15,17.0,26.0,48,0.00,,,0.00,,2013-02-14 19:11:00,
2013-02-14 13:21:00,22.0,5.0,-100.00,North,0,14.0,21.0,49,0.00,,,0.00,,2013-02-14 19:21:00,
2013-02-14 13:31:00,22.0,7.0,-100.00,NNE,15,14.0,18.0,50,0.00,,,0.00,,2013-02-14 19:31:00,
2013-02-14 13:41:00,22.0,7.0,-100.00,North,0,15.0,21.0,50,0.00,,,0.00,,2013-02-14 19:41:00,
2013-02-14 13:51:00,22.0,7.0,-100.00,North,0,14.0,20.0,51,0.00,,,0.00,,2013-02-14 19:51:00,
2013-02-14 14:01:00,22.0,7.0,-100.00,North,0,14.0,17.0,51,0.00,,,0.00,,2013-02-14 20:01:00,
2013-02-14 14:11:00,22.0,7.0,-100.00,North,0,12.0,17.0,50,0.00,,,0.00,,2013-02-14 20:11:00,
2013-02-14 14:21:00,22.0,7.0,-100.00,North,0,13.0,17.0,49,0.00,,,0.00,,2013-02-14 20:21:00,
2013-02-14 14:31:00,22.0,5.0,-100.00,North,0,13.0,17.0,48,0.00,,,0.00,,2013-02-14 20:31:00,
2013-02-14 14:41:00,22.0,5.0,-100.00,North,0,13.0,18.0,47,0.00,,,0.00,,2013-02-14 20:41:00,
2013-02-14 14:52:00,23.0,5.0,-100.00,North,0,13.0,19.0,47,0.00,,,0.00,,2013-02-14 20:52:00,
2013-02-14 15:02:00,22.0,5.0,-100.00,NNW,345,13.0,19.0,48,0.00,,,0.00,,2013-02-14 21:02:00,
2013-02-14 15:11:00,22.0,5.0,-100.00,NNW,340,12.0,18.0,48,0.00,,,0.00,,2013-02-14 21:11:00,
2013-02-14 15:21:00,22.0,5.0,-100.00,NNW,345,11.0,18.0,48,0.00,,,0.00,,2013-02-14 21:21:00,
2013-02-14 15:31:00,21.0,5.0,-100.00,NNW,340,16.0,19.0,48,0.00,,,0.00,,2013-02-14 21:31:00,
2013-02-14 15:41:00,21.0,5.0,-100.00,NNW,340,14.0,18.0,48,0.00,,,0.00,,2013-02-14 21:41:00,
2013-02-14 15:51:00,21.0,3.0,-100.00,North,355,15.0,21.0,47,0.00,,,0.00,,2013-02-14 21:51:00,
2013-02-14 16:02:00,21.0,5.0,-100.00,North,0,11.0,20.0,47,0.00,,,0.00,,2013-02-14 22:02:00,
2013-02-14 16:11:00,21.0,5.0,-100.00,NNW,335,13.0,18.0,48,0.00,,,0.00,,2013-02-14 22:11:00,
2013-02-14 16:21:00,20.0,3.0,-100.00,NNW,340,14.0,20.0,48,0.00,,,0.00,,2013-02-14 22:21:00,
2013-02-14 16:31:00,20.0,5.0,-100.00,NNW,345,11.0,19.0,48,0.00,,,0.00,,2013-02-14 22:31:00,
2013-02-14 16:41:00,20.0,3.0,-100.00,North,350,12.0,18.0,49,0.00,,,0.00,,2013-02-14 22:41:00,
2013-02-14 16:51:00,20.0,3.0,-100.00,North,0,11.0,17.0,49,0.00,,,0.00,,2013-02-14 22:51:00,
2013-02-14 17:01:00,19.0,3.0,-100.00,NNW,340,12.0,20.0,49,0.00,,,0.00,,2013-02-14 23:01:00,
2013-02-14 17:11:00,19.0,3.0,-100.00,NNW,345,12.0,19.0,49,0.00,,,0.00,,2013-02-14 23:11:00,
2013-02-14 17:21:00,18.0,3.0,-100.00,NNW,340,12.0,16.0,51,0.00,,,0.00,,2013-02-14 23:21:00,
2013-02-14 17:31:00,18.0,3.0,-100.00,NNW,340,11.0,15.0,51,0.00,,,0.00,,2013-02-14 23:31:00,
2013-02-14 17:41:00,16.0,3.0,-100.00,WNW,300,11.0,16.0,56,0.00,,,0.00,,2013-02-14 23:41:00,
2013-02-14 17:52:00,13.0,3.0,-100.00,NW,315,13.0,17.0,61,0.00,,,0.00,,2013-02-14 23:52:00,
2013-02-14 18:01:00,13.0,3.0,-100.00,NNW,330,11.0,16.0,64,0.00,,,0.00,,2013-02-15 00:01:00,
2013-02-14 18:11:00,12.0,3.0,-100.00,NW,325,11.0,15.0,65,0.00,,,0.00,,2013-02-15 00:11:00,
2013-02-14 18:21:00,11.0,1.0,-100.00,NNW,330,11.0,14.0,66,0.00,,,0.00,,2013-02-15 00:21:00,
2013-02-14 18:31:00,11.0,1.0,-100.00,NW,320,10.0,13.0,67,0.00,,,0.00,,2013-02-15 00:31:00,
2013-02-14 18:41:00,10.0,1.0,-100.00,NW,315,12.0,14.0,68,0.00,,,0.00,,2013-02-15 00:41:00,
2013-02-14 18:51:00,9.0,1.0,-100.00,NW,320,10.0,15.0,68,0.00,,,0.00,,2013-02-15 00:51:00,
2013-02-14 19:02:00,9.0,1.0,-100.00,NW,320,12.0,14.0,69,0.00,,,0.00,,2013-02-15 01:02:00,
2013-02-14 19:11:00,9.0,1.0,-100.00,NNW,330,12.0,16.0,69,0.00,,,0.00,,2013-02-15 01:11:00,
2013-02-14 19:21:00,8.0,0.0,-100.00,NNW,335,11.0,14.0,70,0.00,,,0.00,,2013-02-15 01:21:00,
2013-02-14 19:31:00,8.0,0.0,-100.00,NW,320,10.0,13.0,70,0.00,,,0.00,,2013-02-15 01:31:00,
2013-02-14 19:41:00,7.0,0.0,-100.00,NW,325,9.0,12.0,70,0.00,,,0.00,,2013-02-15 01:41:00,
2013-02-14 19:51:00,7.0,0.0,-100.00,NW,320,9.0,12.0,70,0.00,,,0.00,,2013-02-15 01:51:00,
2013-02-14 20:01:00,7.0,0.0,-100.00,NW,315,10.0,13.0,71,0.00,,,0.00,,2013-02-15 02:01:00,
2013-02-14 20:11:00,6.0,0.0,-100.00,NW,320,11.0,12.0,72,0.00,,,0.00,,2013-02-15 02:11:00,
2013-02-14 20:21:00,5.0,-2.0,-100.00,NW,325,12.0,16.0,73,0.00,,,0.00,,2013-02-15 02:21:00,
2013-02-14 20:31:00,5.0,-2.0,-100.00,NW,325,11.0,16.0,74,0.00,,,0.00,,2013-02-15 02:31:00,
2013-02-14 20:41:00,5.0,-2.0,-100.00,NW,320,12.0,15.0,74,0.00,,,0.00,,2013-02-15 02:41:00,
2013-02-14 20:52:00,4.0,-2.0,-100.00,NW,325,12.0,16.0,75,0.00,,,0.00,,2013-02-15 02:52:00,
2013-02-14 21:02:00,4.0,-2.0,-100.00,NW,320,12.0,15.0,76,0.00,,,0.00,,2013-02-15 03:02:00,
2013-02-14 21:11:00,4.0,-2.0,-100.00,NW,325,13.0,16.0,76,0.00,,,0.00,,2013-02-15 03:11:00,
2013-02-14 21:21:00,4.0,-2.0,-100.00,NW,325,10.0,16.0,78,0.00,,,0.00,,2013-02-15 03:21:00,
2013-02-14 21:32:00,4.0,-2.0,-100.00,NNW,335,10.0,13.0,78,0.00,,,0.00,,2013-02-15 03:32:00,
2013-02-14 21:42:00,4.0,-2.0,-100.00,NNW,335,10.0,12.0,79,0.00,,,0.00,,2013-02-15 03:42:00,
2013-02-14 21:51:00,3.0,-2.0,-100.00,NNW,335,7.0,11.0,80,0.00,,,0.00,,2013-02-15 03:51:00,
2013-02-14 22:01:00,3.0,-2.0,-100.00,NNW,335,7.0,11.0,81,0.00,,,0.00,,2013-02-15 04:01:00,
2013-02-14 22:11:00,3.0,-2.0,-100.00,NW,325,7.0,9.0,81,0.00,,,0.00,,2013-02-15 04:11:00,
2013-02-14 22:21:00,3.0,0.0,-100.00,NW,315,7.0,10.0,82,0.00,,,0.00,,2013-02-15 04:21:00,
2013-02-14 22:31:00,3.0,0.0,-100.00,NW,320,7.0,9.0,82,0.00,,,0.00,,2013-02-15 04:31:00,
2013-02-14 22:42:00,3.0,0.0,-100.00,NNW,330,11.0,12.0,83,0.00,,,0.00,,2013-02-15 04:42:00,
2013-02-14 22:51:00,3.0,0.0,-100.00,NNW,330,12.0,13.0,84,0.00,,,0.00,,2013-02-15 04:51:00,
2013-02-14 23:02:00,4.0,0.0,-100.00,NNW,335,9.0,12.0,84,0.00,,,0.00,,2013-02-15 05:02:00,
2013-02-14 23:11:00,4.0,0.0,-100.00,NNW,335,9.0,12.0,84,0.00,,,0.00,,2013-02-15 05:11:00,
2013-02-14 23:22:00,4.0,0.0,-100.00,NNW,335,7.0,9.0,85,0.00,,,0.00,,2013-02-15 05:22:00,
2013-02-14 23:32:00,4.0,0.0,-100.00,NNW,335,6.0,9.0,85,0.00,,,0.00,,2013-02-15 05:32:00,
2013-02-14 23:41:00,3.0,0.0,-100.00,NNW,335,7.0,9.0,85,0.00,,,0.00,,2013-02-15 05:41:00,
2013-02-14 23:52:00,3.0,0.0,-100.00,NW,325,9.0,10.0,85,0.00,,,0.00,,2013-02-15 05:52:00,